| time (UTC) | temp F | wind direction | speed MPH | gust MPH | rain 1hr in | rain 24hr in | rain mn in | humidity % | barometer mb |
| 20260831124601 | 75 | 124 | 0.0 | 0.0 | 0.00 | 0.00 | 0.00 | 85 | 1015.0 |
| 20260831123027 | 74 | 124 | 0.0 | 0.0 | 0.00 | 0.00 | 0.00 | 85 | 1015.0 |
| 20260831121601 | 74 | 124 | 0.0 | 0.0 | 0.00 | 0.00 | 0.00 | 85 | 1014.7 |
| 20260831120038 | 74 | 125 | 0.0 | 0.0 | 0.00 | 0.00 | 0.00 | 86 | 1014.7 |
| 20260831114505 | 74 | 124 | 0.0 | 0.0 | 0.00 | 0.00 | 0.00 | 85 | 1014.9 |
| 20260831113038 | 74 | 125 | 0.0 | 0.0 | 0.00 | 0.00 | 0.00 | 85 | 1014.8 |
| 20260831111510 | 75 | 124 | 0.0 | 0.0 | 0.00 | 0.00 | 0.00 | 85 | 1014.8 |
| 20260831110044 | 75 | 124 | 0.0 | 0.0 | 0.00 | 0.00 | 0.00 | 85 | 1014.7 |
| 20260831104526 | 75 | 125 | 0.0 | 0.0 | 0.00 | 0.00 | 0.00 | 85 | 1014.7 |
| 20260831103102 | 75 | 124 | 0.0 | 0.0 | 0.00 | 0.00 | 0.00 | 84 | 1014.8 |
| 20260831101523 | 75 | 125 | 0.0 | 0.0 | 0.00 | 0.00 | 0.00 | 84 | 1014.8 |
| 20260831100055 | 76 | 125 | 0.0 | 0.0 | 0.00 | 0.00 | 0.00 | 84 | 1014.8 |
| 20260831094523 | 75 | 124 | 0.0 | 0.0 | 0.00 | 0.00 | 0.00 | 84 | 1014.7 |
| 20260831093057 | 75 | 125 | 0.0 | 0.0 | 0.00 | 0.00 | 0.00 | 84 | 1014.7 |
| 20260831091525 | 76 | 125 | 0.0 | 0.0 | 0.00 | 0.00 | 0.00 | 83 | 1014.6 |
| 20260831090106 | 76 | 125 | 0.0 | 0.0 | 0.00 | 0.00 | 0.00 | 83 | 1014.6 |
| 20260831084534 | 76 | 128 | 0.0 | 0.0 | 0.00 | 0.00 | 0.00 | 83 | 1014.6 |
| 20260831083003 | 76 | 133 | 0.0 | 0.0 | 0.00 | 0.00 | 0.00 | 82 | 1014.6 |
| 20260831081536 | 77 | 133 | 0.0 | 2.0 | 0.00 | 0.00 | 0.00 | 83 | 1014.5 |
| 20260831080005 | 77 | 110 | 0.0 | 0.0 | 0.00 | 0.00 | 0.00 | 82 | 1014.7 |
| 20260831074541 | 77 | 110 | 0.0 | 0.0 | 0.00 | 0.00 | 0.00 | 81 | 1014.8 |
| 20260831073009 | 78 | 110 | 0.0 | 2.0 | 0.00 | 0.00 | 0.00 | 81 | 1014.8 |
| 20260831071542 | 78 | 112 | 2.0 | 4.0 | 0.00 | 0.00 | 0.00 | 80 | 1014.9 |
| 20260831070013 | 78 | 113 | 1.0 | 3.0 | 0.00 | 0.00 | 0.00 | 80 | 1014.9 |
| 20260831064542 | 79 | 116 | 1.0 | 6.0 | 0.00 | 0.00 | 0.00 | 80 | 1015.0 |
| 20260831063011 | 79 | 113 | 2.0 | 5.0 | 0.00 | 0.00 | 0.00 | 79 | 1014.9 |
| 20260831061549 | 79 | 115 | 2.0 | 5.0 | 0.00 | 0.00 | 0.00 | 78 | 1014.9 |
| 20260831060013 | 79 | 118 | 2.0 | 5.0 | 0.00 | 0.00 | 0.00 | 78 | 1014.9 |
| 20260831054547 | 79 | 120 | 1.0 | 3.0 | 0.00 | 0.00 | 0.00 | 77 | 1015.1 |
| 20260831053017 | 80 | 110 | 1.0 | 4.0 | 0.00 | 0.00 | 0.00 | 76 | 1014.8 |
| 20260831051548 | 80 | 121 | 0.0 | 3.0 | 0.00 | 0.00 | 0.00 | 75 | 1014.8 |
| 20260831050015 | 80 | 112 | 0.0 | 3.0 | 0.00 | 0.00 | 0.00 | 74 | 1014.6 |
| 20260831044605 | 81 | 131 | 0.0 | 5.0 | 0.00 | 0.00 | 0.00 | 73 | 1014.7 |
| 20260831043023 | 81 | 115 | 0.0 | 4.0 | 0.00 | 0.00 | 0.00 | 72 | 1014.8 |
| 20260831041612 | 82 | 117 | 1.0 | 4.0 | 0.00 | 0.00 | 0.00 | 70 | 1014.8 |
| 20260831040030 | 83 | 144 | 1.0 | 7.0 | 0.00 | 0.00 | 0.00 | 69 | 1014.6 |
| 20260831034502 | 83 | 132 | 2.0 | 6.0 | 0.00 | 0.00 | 0.00 | 68 | 1014.5 |
| 20260831033036 | 84 | 110 | 3.0 | 10.0 | 0.00 | 0.00 | 0.00 | 67 | 1014.3 |
| 20260831031516 | 84 | 114 | 4.0 | 9.0 | 0.00 | 0.00 | 0.00 | 66 | 1014.2 |
| 20260831030048 | 85 | 147 | 3.0 | 8.0 | 0.00 | 0.00 | 0.00 | 64 | 1013.9 |
| 20260831024520 | 85 | 125 | 3.0 | 7.0 | 0.00 | 0.00 | 0.00 | 63 | 1013.7 |
| 20260831023051 | 86 | 111 | 2.0 | 10.0 | 0.00 | 0.00 | 0.00 | 61 | 1013.5 |
| 20260831021522 | 87 | 126 | 4.0 | 10.0 | 0.00 | 0.00 | 0.00 | 59 | 1013.2 |
| 20260831020113 | 87 | 94 | 7.0 | 11.0 | 0.00 | 0.00 | 0.00 | 56 | 1012.9 |
| 20260831014529 | 88 | 109 | 5.0 | 11.0 | 0.00 | 0.00 | 0.00 | 53 | 1012.7 |
| 20260831013003 | 89 | 130 | 5.0 | 12.0 | 0.00 | 0.00 | 0.00 | 51 | 1012.6 |
| 20260831011539 | 90 | 168 | 4.0 | 12.0 | 0.00 | 0.00 | 0.00 | 51 | 1012.3 |
| 20260831010027 | 91 | 140 | 6.0 | 15.0 | 0.00 | 0.00 | 0.00 | 50 | 1012.1 |
| 20260831004543 | 92 | 141 | 7.0 | 18.0 | 0.00 | 0.00 | 0.00 | 46 | 1011.9 |
| 20260831003017 | 94 | 127 | 9.0 | 16.0 | 0.00 | 0.00 | 0.00 | 40 | 1011.7 |
| 20260831001556 | 96 | 110 | 6.0 | 11.0 | 0.00 | 0.00 | 0.00 | 37 | 1011.5 |
| 20260831000027 | 97 | 116 | 6.0 | 13.0 | 0.00 | 0.00 | 0.00 | 35 | 1011.4 |
| 20260830234503 | 97 | 121 | 5.0 | 14.0 | 0.00 | 0.00 | 0.00 | 34 | 1011.5 |
| 20260830233039 | 98 | 104 | 6.0 | 12.0 | 0.00 | 0.00 | 0.00 | 35 | 1011.5 |
| 20260830231512 | 98 | 105 | 6.0 | 12.0 | 0.00 | 0.00 | 0.00 | 35 | 1011.7 |
| 20260830230044 | 99 | 141 | 7.0 | 12.0 | 0.00 | 0.00 | 0.00 | 35 | 1011.7 |
| 20260830224525 | 99 | 112 | 4.0 | 17.0 | 0.00 | 0.00 | 0.00 | 38 | 1011.7 |
| 20260830223050 | 100 | 144 | 11.0 | 20.0 | 0.00 | 0.00 | 0.00 | 35 | 1011.5 |
| 20260830221523 | 102 | 136 | 9.0 | 17.0 | 0.00 | 0.00 | 0.00 | 30 | 1011.4 |
| 20260830220053 | 103 | 122 | 3.0 | 11.0 | 0.00 | 0.00 | 0.00 | 27 | 1011.2 |
| 20260830214526 | 103 | 199 | 4.0 | 9.0 | 0.00 | 0.00 | 0.00 | 27 | 1011.4 |
| 20260830213110 | 102 | 174 | 3.0 | 13.0 | 0.00 | 0.00 | 0.00 | 29 | 1011.7 |
| 20260830211529 | 101 | 136 | 4.0 | 14.0 | 0.00 | 0.00 | 0.00 | 30 | 1012.0 |
| 20260830210104 | 101 | 94 | 3.0 | 11.0 | 0.00 | 0.00 | 0.00 | 31 | 1012.2 |
| 20260830204529 | 102 | 151 | 6.0 | 11.0 | 0.00 | 0.00 | 0.00 | 30 | 1012.6 |
| 20260830203056 | 101 | 136 | 5.0 | 10.0 | 0.00 | 0.00 | 0.00 | 32 | 1012.9 |
| 20260830201600 | 100 | 124 | 5.0 | 11.0 | 0.00 | 0.00 | 0.00 | 34 | 1013.0 |
| 20260830194535 | 98 | 108 | 3.0 | 9.0 | 0.00 | 0.00 | 0.00 | 37 | 1013.4 |
| 20260830193005 | 100 | 65 | 4.0 | 13.0 | 0.00 | 0.00 | 0.00 | 34 | 1013.8 |
| 20260830191542 | 98 | 167 | 6.0 | 9.0 | 0.00 | 0.00 | 0.00 | 37 | 1014.1 |
| 20260830190012 | 99 | 144 | 3.0 | 12.0 | 0.00 | 0.00 | 0.00 | 37 | 1014.3 |
| 20260830184542 | 99 | 136 | 5.0 | 10.0 | 0.00 | 0.00 | 0.00 | 35 | 1014.6 |
| 20260830183007 | 98 | 79 | 4.0 | 10.0 | 0.00 | 0.00 | 0.00 | 38 | 1014.9 |
| 20260830181558 | 98 | 226 | 3.0 | 13.0 | 0.00 | 0.00 | 0.00 | 40 | 1015.0 |
| 20260830180008 | 96 | 129 | 3.0 | 8.0 | 0.00 | 0.00 | 0.00 | 43 | 1015.3 |
| 20260830174543 | 95 | 248 | 1.0 | 8.0 | 0.00 | 0.00 | 0.00 | 44 | 1015.5 |
| 20260830173025 | 96 | 137 | 5.0 | 12.0 | 0.00 | 0.00 | 0.00 | 45 | 1015.8 |
| 20260830171544 | 94 | 77 | 2.0 | 7.0 | 0.00 | 0.00 | 0.00 | 48 | 1016.1 |
| 20260830170014 | 94 | 116 | 3.0 | 8.0 | 0.00 | 0.00 | 0.00 | 49 | 1016.2 |
| 20260830164548 | 94 | 96 | 3.0 | 8.0 | 0.00 | 0.00 | 0.00 | 51 | 1016.4 |
| 20260830163013 | 91 | 146 | 3.0 | 7.0 | 0.00 | 0.00 | 0.00 | 54 | 1016.5 |
| 20260830161546 | 90 | 110 | 3.0 | 8.0 | 0.00 | 0.00 | 0.00 | 55 | 1016.7 |
| 20260830160016 | 89 | 101 | 3.0 | 9.0 | 0.00 | 0.00 | 0.00 | 59 | 1016.6 |
| 20260830154546 | 88 | 139 | 3.0 | 7.0 | 0.00 | 0.00 | 0.00 | 61 | 1016.8 |
| 20260830153029 | 86 | 129 | 1.0 | 5.0 | 0.00 | 0.00 | 0.00 | 66 | 1016.7 |
| 20260830151555 | 86 | 224 | 2.0 | 6.0 | 0.00 | 0.00 | 0.00 | 67 | 1016.6 |
| 20260830150018 | 86 | 217 | 1.0 | 7.0 | 0.00 | 0.00 | 0.00 | 68 | 1016.6 |
| 20260830144547 | 86 | 182 | 3.0 | 7.0 | 0.00 | 0.00 | 0.00 | 70 | 1016.6 |
| 20260830143016 | 85 | 211 | 1.0 | 5.0 | 0.00 | 0.00 | 0.00 | 73 | 1016.6 |
| 20260830141552 | 82 | 354 | 0.0 | 2.0 | 0.00 | 0.00 | 0.00 | 77 | 1016.4 |
| 20260830140015 | 80 | 63 | 0.0 | 2.0 | 0.00 | 0.00 | 0.00 | 83 | 1016.5 |
| 20260830134553 | 78 | 356 | 0.0 | 3.0 | 0.00 | 0.00 | 0.00 | 85 | 1016.4 |
| 20260830133035 | 77 | 154 | 0.0 | 1.0 | 0.00 | 0.00 | 0.00 | 86 | 1016.3 |
| 20260830131601 | 75 | 162 | 0.0 | 1.0 | 0.00 | 0.00 | 0.00 | 86 | 1016.3 |
| 20260830130027 | 73 | 163 | 0.0 | 1.0 | 0.00 | 0.00 | 0.00 | 85 | 1016.3 |